Location: Makakahi
(40.6833°S, 175.6000°E)
Time: 05:26:04
(UTC+00:00)

DMSP F15 (USA 147) - Pass Details

Date: 09 December 2024
Orbit: 827 x 842 km, 99.1° (Epoch: 18 January)

Event Time Altitude Azimuth Distance (km) Brightness Sun altitude
Rises 08:38:46 0° 177° (S) 3,435 9.0 -9.7°
Reaches altitude 10° 08:41:26 10° 188° (S) 2,494 8.4 -10.1°
Maximum altitude 08:46:05 29° 245° (WSW) 1,532 7.4 -10.7°
Drops below altitude 10° 08:50:42 10° 303° (WNW) 2,470 7.8 -11.4°
Sets 08:53:20 0° 313° (NW) 3,397 8.4 -11.7°
